This is the latest recevied weather packets stored in our database for station/object K0QED. If no packets are shown the sender has not sent any weather packets the latest 10 day(s).
| Time | Temp. | Humidity | Pressure | Rain* | Wind** | Luminosity | Snow |
|---|---|---|---|---|---|---|---|
| 1788389115 | 28.33° C | 27% | 1022.7 hPa | 0 mm | - | 136 W/m² | - |
| 1788388811 | 28.89° C | 25% | 1022.4 hPa | 0 mm | - | 333 W/m² | - |
| 1788388507 | 29.44° C | 24% | 1022.4 hPa | 0 mm | - | 357 W/m² | - |
| 1788388206 | 29.44° C | 25% | 1022.5 hPa | 0 mm | - | 387 W/m² | - |
| 1788387904 | 28.89° C | 26% | 1022.6 hPa | 0 mm | - | 399 W/m² | - |
| 1788387598 | 28.33° C | 27% | 1022.7 hPa | 0 mm | - | 422 W/m² | - |
| 1788387298 | 28.33° C | 27% | 1022.6 hPa | 0 mm | - | 428 W/m² | - |
| 1788386994 | 28.89° C | 26% | 1022.9 hPa | 0 mm | - | 433 W/m² | - |
| 1788386694 | 27.22° C | 27% | 1022.9 hPa | 0 mm | - | 445 W/m² | - |
| 1788386388 | 28.33° C | 28% | 1022.9 hPa | 0 mm | - | 82 W/m² | - |
| 1788386084 | 27.78° C | 27% | 1022.7 hPa | 0 mm | - | 511 W/m² | - |
| 1788385780 | 28.33° C | 27% | 1022.9 hPa | 0 mm | - | 545 W/m² | - |
| 1788385478 | 27.78° C | 27% | 1022.9 hPa | 0 mm | - | 540 W/m² | - |
| 1788385172 | 27.78° C | 27% | 1023.2 hPa | 0 mm | - | 544 W/m² | - |
| 1788384869 | 28.33° C | 27% | 1023 hPa | 0 mm | - | 170 W/m² | - |
| 1788384568 | 29.44° C | 26% | 1022.9 hPa | 0 mm | - | 105 W/m² | - |
| 1788384264 | 28.89° C | 25% | 1023.1 hPa | 0 mm | - | 583 W/m² | - |
| 1788383960 | 28.89° C | 28% | 1023 hPa | 0 mm | - | 596 W/m² | - |
| 1788383656 | 28.33° C | 27% | 1023 hPa | 0 mm | - | 610 W/m² | - |
| 1788383351 | 27.78° C | 27% | 1023.7 hPa | 0 mm | - | 602 W/m² | - |
| 1788383050 | 27.78° C | 27% | 1023.5 hPa | 0 mm | - | 563 W/m² | - |
| 1788382749 | 28.89° C | 28% | 1023.6 hPa | 0 mm | - | 557 W/m² | - |
| 1788382444 | 28.33° C | 27% | 1023.6 hPa | 0 mm | - | 573 W/m² | - |
| 1788382140 | 28.33° C | 27% | 1023.7 hPa | 0 mm | - | 571 W/m² | - |
| 1788381839 | 28.89° C | 26% | 1023.9 hPa | 0 mm | - | 594 W/m² | - |
* Rain latest hour (hover to see other rain measurements)
** Current wind speed in m/s (hover to see current wind gust speed)